sat.trackr.live / text

‹ back to catalog

ONEWEB-0237

NORAD 48770 · 2021-045D

PAYLOAD ACTIVE UNKNOWN

§ Identity

Operator
Country
UK
Launch date
2021-05-28
Launch site
VOSTO
Launch vehicle
Mass (kg)
RCS (m²)

Purposes: comms

External: N2YO · Heavens-Above · Gunter

§ Orbital elements

Epoch: 2026-09-09T22:58:55.371648Z

Period
109.46 min
Inclination
87.8970°
Eccentricity
0.0001701
Mean motion
13.15549408 rev/d
Perigee alt
1,200.5 km
Apogee alt
1,203.1 km
Semi-major
7,579.9 km
B*
4.6594e-4
RAAN
242.2999°
Arg perigee
82.1512°
Mean anomaly
277.9811°
Rev number
25,553

§ Raw data

ONEWEB-02371 48770U 21045D   26252.95758532  .00000188  00000+0  46594-3 0  99962 48770  87.8970 242.2999 0001701  82.1512 277.9811 13.15549408255537

JSON: /api/v1/satellites/48770 · /tle

For live sub-satellite position, see the globe view (requires WebGL).

§ Visibility from observer

Set your observer location to see the next 7 days of passes ≥ 10°. The values pass through the URL so the page stays shareable.

No JS? Fill the form by hand. The geolocation button needs JavaScript.